NOZ4PL EKCH-LDZD

Flight info

Callsign NOZ4PL
Flight time 1h 45m
Altitude 37000
Route SALLO M44 KOGIM DCT MAREM DCT BUDEX DCT KUDUL
Aircraft B38M/M-SDE1FGHILORVWXY/HB1

Departure

Time 2026-05-08 11:26
Airport Copenhagen Kastrup Airport (EKCH)

Arrival

Time 2026-05-08 13:12
Airport Zadar Airport (LDZD)
Time Latitude Longitude Altitude Speed Heading
2026-05-08 11:05 55.62605 12.64890 24 ft 0 kts 71°
2026-05-08 11:20 55.62605 12.64889 23 ft 2 kts 71°
2026-05-08 11:20 55.62596 12.64848 24 ft 4 kts 68°
2026-05-08 11:20 55.62587 12.64803 26 ft 4 kts 79°
2026-05-08 11:21 55.62587 12.64772 26 ft 4 kts 152°
2026-05-08 11:21 55.62589 12.64770 27 ft 0 kts 179°
2026-05-08 11:23 55.62548 12.64771 26 ft 13 kts 179°
2026-05-08 11:23 55.62489 12.64773 26 ft 0 kts 178°
2026-05-08 11:24 55.62485 12.64773 23 ft 3 kts 179°
2026-05-08 11:24 55.62407 12.64777 26 ft 19 kts 178°
2026-05-08 11:24 55.62324 12.64708 24 ft 15 kts 248°
2026-05-08 11:24 55.62281 12.64410 22 ft 33 kts 269°
2026-05-08 11:25 55.62275 12.64289 20 ft 1 kts 201°
2026-05-08 11:25 55.62148 12.64302 19 ft 24 kts 206°
2026-05-08 11:25 55.61970 12.64154 23 ft 32 kts 206°
2026-05-08 11:25 55.61746 12.64079 24 ft 35 kts 177°
2026-05-08 11:26 55.61490 12.63855 20 ft 69 kts 221°
2026-05-08 11:26 55.60936 12.63001 20 ft 140 kts 221°
2026-05-08 11:26 55.60103 12.61723 469 ft 164 kts 218°
2026-05-08 11:26 55.59220 12.60365 1339 ft 172 kts 217°
2026-05-08 11:27 55.58299 12.58936 2161 ft 183 kts 217°
2026-05-08 11:27 55.57282 12.57380 2748 ft 204 kts 217°
2026-05-08 11:27 55.56070 12.55761 3281 ft 231 kts 207°
2026-05-08 11:27 55.54547 12.54563 3967 ft 249 kts 195°
2026-05-08 11:28 55.52835 12.53603 4736 ft 266 kts 191°
2026-05-08 11:28 55.51038 12.53698 5787 ft 257 kts 158°
2026-05-08 11:28 55.49481 12.55247 6797 ft 260 kts 138°
2026-05-08 11:28 55.48116 12.57308 7772 ft 263 kts 138°
2026-05-08 11:29 55.46718 12.59395 8826 ft 265 kts 139°
2026-05-08 11:29 55.45300 12.61492 9857 ft 268 kts 139°
2026-05-08 11:29 55.43858 12.63613 10736 ft 275 kts 139°
2026-05-08 11:29 55.42335 12.65833 11219 ft 295 kts 140°
2026-05-08 11:30 55.40692 12.68210 11613 ft 316 kts 140°
2026-05-08 11:30 55.38955 12.70720 12129 ft 330 kts 140°
2026-05-08 11:30 55.37158 12.73320 12808 ft 338 kts 140°
2026-05-08 11:30 55.35334 12.75970 13636 ft 343 kts 140°
2026-05-08 11:31 55.33486 12.78652 14394 ft 347 kts 140°
2026-05-08 11:31 55.31614 12.81375 15055 ft 353 kts 140°
2026-05-08 11:31 55.29662 12.84071 15593 ft 361 kts 148°
2026-05-08 11:31 55.27380 12.85903 16359 ft 362 kts 159°
2026-05-08 11:32 55.25021 12.87565 16942 ft 368 kts 158°
2026-05-08 11:32 55.22641 12.89282 17637 ft 372 kts 158°
2026-05-08 11:32 55.20236 12.91034 18274 ft 376 kts 158°
2026-05-08 11:32 55.17807 12.92810 18868 ft 380 kts 158°
2026-05-08 11:33 55.15366 12.94594 19437 ft 383 kts 158°
2026-05-08 11:33 55.12922 12.96379 20001 ft 386 kts 158°
2026-05-08 11:33 55.10436 12.98192 20564 ft 389 kts 158°
2026-05-08 11:33 55.07928 13.00018 21115 ft 392 kts 158°
2026-05-08 11:34 55.05406 13.01853 21669 ft 394 kts 158°
2026-05-08 11:34 55.02867 13.03697 22233 ft 397 kts 158°
2026-05-08 11:34 55.00306 13.05556 22750 ft 400 kts 158°
2026-05-08 11:34 54.97718 13.07430 23266 ft 403 kts 158°
2026-05-08 11:35 54.95121 13.09309 23838 ft 405 kts 158°
2026-05-08 11:35 54.92512 13.11194 24247 ft 408 kts 158°
2026-05-08 11:35 54.89878 13.13093 24617 ft 412 kts 158°
2026-05-08 11:35 54.87220 13.15008 25073 ft 414 kts 158°
2026-05-08 11:36 54.84543 13.16934 25417 ft 418 kts 158°
2026-05-08 11:36 54.81848 13.18870 25854 ft 420 kts 158°
2026-05-08 11:36 54.79175 13.20786 26268 ft 422 kts 159°
2026-05-08 11:36 54.76445 13.22741 26558 ft 427 kts 159°
2026-05-08 11:37 54.73691 13.24711 26962 ft 429 kts 159°
2026-05-08 11:37 54.70920 13.26690 27322 ft 432 kts 159°
2026-05-08 11:37 54.68136 13.28675 27697 ft 435 kts 159°
2026-05-08 11:37 54.65333 13.30671 28070 ft 437 kts 159°
2026-05-08 11:38 54.62519 13.32671 28427 ft 440 kts 159°
2026-05-08 11:38 54.59676 13.34690 28789 ft 442 kts 159°
2026-05-08 11:38 54.56816 13.36716 29135 ft 445 kts 159°
2026-05-08 11:38 54.53950 13.38744 29491 ft 447 kts 159°
2026-05-08 11:39 54.51066 13.40780 29812 ft 449 kts 160°
2026-05-08 11:39 54.48194 13.42805 30071 ft 453 kts 159°
2026-05-08 11:39 54.45282 13.44858 30438 ft 454 kts 160°
2026-05-08 11:39 54.42343 13.46924 30669 ft 458 kts 159°
2026-05-08 11:40 54.39381 13.49005 30915 ft 460 kts 160°
2026-05-08 11:40 54.36401 13.51094 31168 ft 463 kts 160°
2026-05-08 11:40 54.33410 13.53145 31442 ft 464 kts 163°
2026-05-08 11:40 54.30266 13.54172 31850 ft 457 kts 179°
2026-05-08 11:41 54.27123 13.54346 32142 ft 458 kts 180°
2026-05-08 11:41 54.23897 13.54517 32445 ft 458 kts 180°
2026-05-08 11:41 54.20710 13.54644 32783 ft 458 kts 181°
2026-05-08 11:41 54.17556 13.54741 33115 ft 458 kts 181°
2026-05-08 11:42 54.14373 13.54828 33481 ft 458 kts 181°
2026-05-08 11:42 54.11192 13.54909 33822 ft 457 kts 181°
2026-05-08 11:42 54.08008 13.54990 34155 ft 457 kts 181°
2026-05-08 11:42 54.04832 13.55069 34463 ft 456 kts 181°
2026-05-08 11:43 54.01651 13.55150 34738 ft 456 kts 181°
2026-05-08 11:43 53.98476 13.55229 34997 ft 456 kts 181°
2026-05-08 11:43 53.95316 13.55309 35259 ft 456 kts 181°
2026-05-08 11:43 53.92148 13.55391 35528 ft 456 kts 181°
2026-05-08 11:44 53.88974 13.55470 35789 ft 455 kts 181°
2026-05-08 11:44 53.85800 13.55550 36047 ft 455 kts 181°
2026-05-08 11:44 53.82630 13.55629 36301 ft 455 kts 181°
2026-05-08 11:44 53.79464 13.55708 36550 ft 455 kts 181°
2026-05-08 11:45 53.76301 13.55787 36782 ft 455 kts 181°
2026-05-08 11:45 53.73139 13.55866 37018 ft 455 kts 181°
2026-05-08 11:45 53.69980 13.55945 37204 ft 455 kts 181°
2026-05-08 11:46 53.63653 13.56102 37200 ft 461 kts 181°
2026-05-08 11:46 53.57174 13.56263 37198 ft 462 kts 181°
2026-05-08 11:47 53.50782 13.56421 37193 ft 462 kts 181°
2026-05-08 11:47 53.44354 13.56579 37194 ft 463 kts 181°
2026-05-08 11:48 53.37915 13.56737 37196 ft 463 kts 181°
2026-05-08 11:48 53.31475 13.56895 37191 ft 463 kts 181°
2026-05-08 11:49 53.25031 13.57051 37185 ft 463 kts 181°
2026-05-08 11:49 53.18595 13.57208 37184 ft 462 kts 181°
2026-05-08 11:50 53.12193 13.57363 37184 ft 462 kts 181°
2026-05-08 11:50 53.05760 13.57519 37180 ft 462 kts 181°
2026-05-08 11:51 52.99325 13.57674 37181 ft 462 kts 181°
2026-05-08 11:51 52.92891 13.57828 37173 ft 462 kts 182°
2026-05-08 11:52 52.86447 13.57983 37174 ft 462 kts 182°
2026-05-08 11:52 52.80013 13.58136 37177 ft 462 kts 182°
2026-05-08 11:53 52.73613 13.58289 37176 ft 462 kts 182°
2026-05-08 11:53 52.67182 13.58441 37177 ft 463 kts 182°
2026-05-08 11:54 52.60736 13.58594 37180 ft 463 kts 182°
2026-05-08 11:54 52.54300 13.58746 37181 ft 462 kts 182°
2026-05-08 11:55 52.47862 13.58897 37181 ft 462 kts 182°
2026-05-08 11:55 52.41431 13.59048 37181 ft 463 kts 182°
2026-05-08 11:56 52.34989 13.59199 37181 ft 462 kts 182°
2026-05-08 11:56 52.28593 13.59348 37187 ft 462 kts 182°
2026-05-08 11:57 52.22154 13.59498 37171 ft 462 kts 182°
2026-05-08 11:57 52.15714 13.59647 37182 ft 463 kts 182°
2026-05-08 11:58 52.09279 13.59796 37180 ft 463 kts 182°
2026-05-08 11:58 52.02837 13.59945 37165 ft 463 kts 182°
2026-05-08 11:59 51.93189 13.60166 37174 ft 463 kts 182°
2026-05-08 11:59 51.86782 13.60313 37175 ft 463 kts 182°
2026-05-08 12:00 51.80345 13.60460 37178 ft 463 kts 182°
2026-05-08 12:00 51.73904 13.60607 37173 ft 462 kts 182°
2026-05-08 12:01 51.67478 13.60753 37171 ft 462 kts 182°
2026-05-08 12:01 51.61051 13.60898 37173 ft 462 kts 182°
2026-05-08 12:02 51.54620 13.61043 37161 ft 462 kts 182°
2026-05-08 12:02 51.48227 13.61187 37147 ft 462 kts 182°
2026-05-08 12:03 51.41787 13.61332 37161 ft 462 kts 182°
2026-05-08 12:03 51.36448 13.61451 37160 ft 462 kts 182°
2026-05-08 12:04 51.30019 13.61595 37157 ft 462 kts 182°
2026-05-08 12:04 51.23598 13.61737 37143 ft 462 kts 182°
2026-05-08 12:05 51.17187 13.61880 37155 ft 461 kts 182°
2026-05-08 12:05 51.10775 13.62022 37158 ft 461 kts 182°
2026-05-08 12:06 51.04356 13.62164 37157 ft 461 kts 182°
2026-05-08 12:06 50.97941 13.62305 37150 ft 461 kts 183°
2026-05-08 12:07 50.91537 13.62446 37153 ft 460 kts 183°
2026-05-08 12:07 50.85130 13.62586 37160 ft 460 kts 183°
2026-05-08 12:08 50.78716 13.62726 37144 ft 460 kts 183°
2026-05-08 12:08 50.72316 13.62908 37138 ft 461 kts 179°
2026-05-08 12:09 50.69205 13.63892 37152 ft 465 kts 167°
2026-05-08 12:09 50.66034 13.65217 37109 ft 466 kts 169°
2026-05-08 12:09 50.59801 13.67755 37147 ft 466 kts 169°
2026-05-08 12:10 50.53519 13.70346 37132 ft 466 kts 169°
2026-05-08 12:10 50.47253 13.72926 37130 ft 465 kts 169°
2026-05-08 12:11 50.40989 13.75499 37135 ft 465 kts 169°
2026-05-08 12:11 50.34728 13.78063 37124 ft 465 kts 169°
2026-05-08 12:12 50.28461 13.80623 37135 ft 465 kts 169°
2026-05-08 12:12 50.22201 13.83173 37128 ft 465 kts 169°
2026-05-08 12:13 50.15933 13.85719 37132 ft 465 kts 169°
2026-05-08 12:13 50.09657 13.88262 37127 ft 465 kts 169°
2026-05-08 12:14 50.03385 13.90796 37108 ft 465 kts 169°
2026-05-08 12:14 49.97141 13.93312 37118 ft 464 kts 169°
2026-05-08 12:15 49.90931 13.95808 37122 ft 464 kts 169°
2026-05-08 12:15 49.84682 13.98312 37121 ft 464 kts 169°
2026-05-08 12:16 49.78433 14.00810 37100 ft 463 kts 169°
2026-05-08 12:16 49.72198 14.03296 37110 ft 463 kts 169°
2026-05-08 12:17 49.65966 14.05774 37116 ft 462 kts 169°
2026-05-08 12:17 49.59724 14.08249 37103 ft 462 kts 169°
2026-05-08 12:18 49.53483 14.10718 37102 ft 462 kts 169°
2026-05-08 12:18 49.47317 14.13150 37110 ft 461 kts 169°
2026-05-08 12:19 49.41093 14.15599 37102 ft 461 kts 169°
2026-05-08 12:19 49.34875 14.18039 37099 ft 461 kts 169°
2026-05-08 12:20 49.28659 14.20472 37097 ft 460 kts 169°
2026-05-08 12:20 49.22506 14.22874 37085 ft 460 kts 169°
2026-05-08 12:21 49.16307 14.25288 37083 ft 460 kts 169°
2026-05-08 12:21 49.10100 14.27699 37074 ft 460 kts 170°
2026-05-08 12:22 49.03900 14.30102 37078 ft 459 kts 170°
2026-05-08 12:22 48.97715 14.32493 37080 ft 459 kts 170°
2026-05-08 12:23 48.91477 14.34190 37100 ft 454 kts 177°
2026-05-08 12:23 48.85236 14.35369 37073 ft 454 kts 178°
2026-05-08 12:24 48.78930 14.36532 37069 ft 453 kts 178°
2026-05-08 12:24 48.72729 14.37669 37086 ft 453 kts 178°
2026-05-08 12:25 48.66466 14.38815 37070 ft 452 kts 178°
2026-05-08 12:25 48.60216 14.39956 37073 ft 451 kts 178°
2026-05-08 12:26 48.54000 14.41088 37072 ft 449 kts 178°
2026-05-08 12:26 48.47790 14.42216 37080 ft 450 kts 178°
2026-05-08 12:27 48.41567 14.43343 37072 ft 450 kts 178°
2026-05-08 12:27 48.35391 14.44459 37070 ft 447 kts 179°
2026-05-08 12:28 48.29204 14.45575 37071 ft 447 kts 179°
2026-05-08 12:28 48.23026 14.46686 37070 ft 447 kts 179°
2026-05-08 12:29 48.16843 14.47795 37075 ft 447 kts 179°
2026-05-08 12:29 48.10680 14.48898 37075 ft 445 kts 179°
2026-05-08 12:30 48.04523 14.49997 37069 ft 445 kts 179°
2026-05-08 12:30 47.98417 14.51085 37080 ft 445 kts 179°
2026-05-08 12:31 47.92261 14.52179 37100 ft 446 kts 179°
2026-05-08 12:31 47.86089 14.53272 37071 ft 445 kts 179°
2026-05-08 12:32 47.79937 14.54362 37061 ft 445 kts 179°
2026-05-08 12:32 47.73785 14.55446 37071 ft 446 kts 179°
2026-05-08 12:33 47.67624 14.56530 37073 ft 445 kts 178°
2026-05-08 12:33 47.61474 14.57610 37071 ft 444 kts 178°
2026-05-08 12:34 47.55326 14.58688 37061 ft 444 kts 178°
2026-05-08 12:34 47.49230 14.59753 37058 ft 445 kts 178°
2026-05-08 12:35 47.43085 14.60824 37057 ft 444 kts 178°
2026-05-08 12:35 47.36969 14.61887 37109 ft 443 kts 178°
2026-05-08 12:36 47.30822 14.62955 37081 ft 443 kts 178°
2026-05-08 12:36 47.24707 14.64013 37065 ft 443 kts 178°
2026-05-08 12:37 47.18589 14.65070 37068 ft 442 kts 178°
2026-05-08 12:37 47.12467 14.66124 37075 ft 443 kts 178°
2026-05-08 12:38 47.06339 14.67178 37049 ft 443 kts 178°
2026-05-08 12:38 47.00264 14.68219 37057 ft 442 kts 178°
2026-05-08 12:39 46.94148 14.69267 37044 ft 442 kts 178°
2026-05-08 12:39 46.88016 14.70313 37047 ft 443 kts 178°
2026-05-08 12:40 46.81898 14.71355 37038 ft 442 kts 178°
2026-05-08 12:40 46.75796 14.72393 37068 ft 442 kts 178°
2026-05-08 12:41 46.69675 14.73431 37068 ft 442 kts 178°
2026-05-08 12:41 46.63603 14.74458 37053 ft 442 kts 178°
2026-05-08 12:42 46.57501 14.75488 37054 ft 441 kts 178°
2026-05-08 12:42 46.51399 14.76513 36993 ft 441 kts 179°
2026-05-08 12:43 46.45317 14.77536 37061 ft 441 kts 178°
2026-05-08 12:43 46.39209 14.78562 37068 ft 441 kts 178°
2026-05-08 12:44 46.33112 14.79582 37054 ft 440 kts 178°
2026-05-08 12:44 46.27020 14.80599 37056 ft 440 kts 178°
2026-05-08 12:45 46.20929 14.81613 37046 ft 441 kts 178°
2026-05-08 12:45 46.14885 14.82617 37064 ft 440 kts 178°
2026-05-08 12:46 46.08804 14.83626 37061 ft 440 kts 178°
2026-05-08 12:46 46.02716 14.84632 37056 ft 440 kts 178°
2026-05-08 12:47 45.96626 14.85637 37048 ft 440 kts 178°
2026-05-08 12:47 45.90530 14.86642 37049 ft 441 kts 178°
2026-05-08 12:48 45.84437 14.87643 37049 ft 440 kts 178°
2026-05-08 12:48 45.78357 14.88640 37053 ft 441 kts 178°
2026-05-08 12:49 45.72299 14.89631 37046 ft 441 kts 178°
2026-05-08 12:49 45.69279 14.90125 36755 ft 433 kts 178°
2026-05-08 12:49 45.66286 14.90614 35930 ft 434 kts 178°
2026-05-08 12:50 45.63278 14.91104 35120 ft 436 kts 178°
2026-05-08 12:50 45.60249 14.91597 34386 ft 437 kts 178°
2026-05-08 12:50 45.58247 14.91923 33877 ft 437 kts 178°
2026-05-08 12:50 45.55231 14.92412 33047 ft 437 kts 177°
2026-05-08 12:51 45.52218 14.92901 32323 ft 435 kts 178°
2026-05-08 12:51 45.46175 14.93880 31240 ft 441 kts 177°
2026-05-08 12:51 45.43112 14.94377 30663 ft 443 kts 177°
2026-05-08 12:52 45.40043 14.94873 30064 ft 446 kts 177°
2026-05-08 12:52 45.33838 14.95874 28798 ft 452 kts 176°
2026-05-08 12:52 45.30705 14.96379 28219 ft 455 kts 176°
2026-05-08 12:53 45.27549 14.96886 27624 ft 457 kts 176°
2026-05-08 12:53 45.24385 14.97395 27046 ft 459 kts 176°
2026-05-08 12:53 45.21239 14.97901 26443 ft 462 kts 176°
2026-05-08 12:53 45.18041 14.98414 25864 ft 464 kts 176°
2026-05-08 12:54 45.14795 14.98934 25262 ft 462 kts 176°
2026-05-08 12:54 45.11608 14.99444 24686 ft 460 kts 175°
2026-05-08 12:54 45.08473 14.99945 24105 ft 457 kts 175°
2026-05-08 12:54 45.05332 15.00447 23504 ft 454 kts 175°
2026-05-08 12:55 45.02208 15.00945 22865 ft 451 kts 175°
2026-05-08 12:55 44.99097 15.01441 22288 ft 448 kts 175°
2026-05-08 12:55 44.96012 15.01932 21742 ft 444 kts 175°
2026-05-08 12:55 44.92950 15.02419 21191 ft 442 kts 175°
2026-05-08 12:56 44.89912 15.02902 20674 ft 438 kts 175°
2026-05-08 12:56 44.86902 15.03380 20145 ft 434 kts 175°
2026-05-08 12:56 44.83911 15.03854 19635 ft 431 kts 175°
2026-05-08 12:56 44.80939 15.04325 19123 ft 428 kts 175°
2026-05-08 12:57 44.77994 15.04791 18622 ft 424 kts 175°
2026-05-08 12:57 44.75071 15.05253 18089 ft 421 kts 174°
2026-05-08 12:57 44.72164 15.05712 17432 ft 417 kts 174°
2026-05-08 12:57 44.69310 15.06162 16937 ft 409 kts 174°
2026-05-08 12:58 44.66551 15.07050 16342 ft 407 kts 158°
2026-05-08 12:58 44.64114 15.08977 15964 ft 398 kts 149°
2026-05-08 12:58 44.61744 15.10985 15542 ft 397 kts 150°
2026-05-08 12:58 44.59393 15.12980 15103 ft 394 kts 149°
2026-05-08 12:59 44.57054 15.14964 14633 ft 391 kts 149°
2026-05-08 12:59 44.54738 15.16931 14204 ft 389 kts 149°
2026-05-08 12:59 44.52422 15.18894 13768 ft 388 kts 149°
2026-05-08 12:59 44.50120 15.20843 13280 ft 385 kts 149°
2026-05-08 13:00 44.47836 15.22776 12823 ft 382 kts 149°
2026-05-08 13:00 44.45573 15.24689 12393 ft 379 kts 149°
2026-05-08 13:00 44.43350 15.26566 11981 ft 377 kts 149°
2026-05-08 13:00 44.41104 15.28462 11544 ft 375 kts 149°
2026-05-08 13:01 44.38876 15.30340 11138 ft 373 kts 149°
2026-05-08 13:01 44.36659 15.32208 10918 ft 372 kts 149°
2026-05-08 13:01 44.34449 15.34068 10765 ft 371 kts 149°
2026-05-08 13:01 44.32227 15.35936 10587 ft 371 kts 149°
2026-05-08 13:02 44.30021 15.37789 10412 ft 371 kts 149°
2026-05-08 13:02 44.27815 15.39641 10218 ft 370 kts 149°
2026-05-08 13:02 44.25634 15.41470 10015 ft 369 kts 149°
2026-05-08 13:02 44.23439 15.43309 9600 ft 367 kts 149°
2026-05-08 13:03 44.21258 15.45136 9178 ft 365 kts 149°
2026-05-08 13:03 44.19087 15.46952 8785 ft 363 kts 149°
2026-05-08 13:03 44.16988 15.48880 8360 ft 357 kts 139°
2026-05-08 13:03 44.15262 15.51228 8004 ft 337 kts 135°
2026-05-08 13:04 44.13636 15.53455 7706 ft 319 kts 135°
2026-05-08 13:04 44.12085 15.55561 7396 ft 305 kts 135°
2026-05-08 13:04 44.10595 15.57575 7063 ft 292 kts 136°
2026-05-08 13:04 44.09166 15.59499 6763 ft 280 kts 136°
2026-05-08 13:05 44.07795 15.61346 6458 ft 269 kts 136°
2026-05-08 13:05 44.06475 15.63120 6199 ft 259 kts 136°
2026-05-08 13:05 44.05184 15.64857 6054 ft 258 kts 136°
2026-05-08 13:05 44.03804 15.66339 5941 ft 249 kts 155°
2026-05-08 13:06 44.02130 15.66802 5676 ft 248 kts 182°
2026-05-08 13:06 44.00500 15.66161 5399 ft 249 kts 208°
2026-05-08 13:06 43.99158 15.64657 5146 ft 247 kts 223°
2026-05-08 13:06 43.97943 15.62988 4898 ft 243 kts 224°
2026-05-08 13:07 43.96769 15.61353 4740 ft 239 kts 224°
2026-05-08 13:07 43.95678 15.59617 4446 ft 240 kts 240°
2026-05-08 13:07 43.95290 15.57396 4110 ft 239 kts 273°
2026-05-08 13:07 43.95799 15.55264 3864 ft 231 kts 304°
2026-05-08 13:08 43.96848 15.53640 3691 ft 222 kts 315°
2026-05-08 13:08 43.97926 15.52150 3476 ft 216 kts 315°
2026-05-08 13:08 43.98982 15.50705 3242 ft 208 kts 315°
2026-05-08 13:08 43.99995 15.49322 3032 ft 203 kts 315°
2026-05-08 13:09 44.01001 15.47959 2815 ft 201 kts 315°
2026-05-08 13:09 44.02004 15.46606 2548 ft 201 kts 314°
2026-05-08 13:09 44.02998 15.45262 2263 ft 195 kts 314°
2026-05-08 13:09 44.03929 15.44004 2030 ft 177 kts 314°
2026-05-08 13:10 44.04754 15.42887 1908 ft 155 kts 313°
2026-05-08 13:10 44.05517 15.41875 1731 ft 149 kts 313°
2026-05-08 13:10 44.06265 15.40880 1438 ft 149 kts 312°
2026-05-08 13:10 44.07006 15.39889 1137 ft 147 kts 311°
2026-05-08 13:11 44.07716 15.38878 928 ft 146 kts 310°
2026-05-08 13:11 44.08443 15.37895 734 ft 145 kts 313°
2026-05-08 13:11 44.09159 15.36940 582 ft 140 kts 311°
2026-05-08 13:11 44.09868 15.35978 372 ft 143 kts 313°
2026-05-08 13:12 44.10550 15.35050 265 ft 117 kts 315°
2026-05-08 13:12 44.10807 15.34693 264 ft 13 kts 298°
2026-05-08 13:12 44.10761 15.34586 263 ft 16 kts 226°
2026-05-08 13:12 44.10675 15.34481 263 ft 10 kts 177°
2026-05-08 13:13 44.10608 15.34563 263 ft 22 kts 135°
2026-05-08 13:13 44.10443 15.34788 265 ft 42 kts 136°
2026-05-08 13:13 44.10231 15.35074 267 ft 46 kts 136°
2026-05-08 13:13 44.09999 15.35389 268 ft 47 kts 135°
2026-05-08 13:14 44.09854 15.35528 269 ft 23 kts 174°
2026-05-08 13:14 44.09691 15.35540 265 ft 12 kts 177°
2026-05-08 13:14 44.09646 15.35526 263 ft 0 kts 209°
2026-05-08 13:14 44.09645 15.35516 263 ft 5 kts 271°
2026-05-08 13:15 44.09645 15.35439 263 ft 5 kts 265°
2026-05-08 13:15 44.09645 15.35438 263 ft 0 kts 265°